Regional Weather Roundup
Issued by NWS San Diego, CA

Home | Current Version | Previous Version | Text Only | Print | Product List | Glossary On
Versions: 1 2 3 4 5 6 7 8 9 10 11 12 13 14 15 16 17 18 19 20 21 22 23 24 25 26 27 28 29 30 31 32 33 34 35 36 37 38 39 40 41 42 43 44 45 46 47 48 49 50
000
ASUS46 KSGX 290311
RWRSGX

SAN DIEGO HOURLY WEATHER ROUNDUP
NATIONAL WEATHER SERVICE SAN DIEGO CA
800 PM PDT FRI AUG 28 2015

NOTE: "FAIR" INDICATES FEW OR NO CLOUDS BELOW 12,000 FEET WITH NO
SIGNIFICANT WEATHER AND/OR OBSTRUCTIONS TO VISIBILITY.

CAZ042-043-060-061-PZZ750-775-290400-

GREATER SAN DIEGO AREA

CITY           SKY/WX    TMP DP  RH WIND       PRES   REMARKS
LINDBERGH FLD  PTCLDY    80  66  62 CALM      29.85R
POINT LOMA       N/A     75  71  88 W9          N/A
NATIONAL CITY    N/A     78  73  84 S2        29.84S
CHULA VISTA      N/A     77  74  89 CALM      29.77R
IMPERIAL BEACH CLOUDY   N/A N/A N/A SW8       29.85S
BROWN FIELD    CLEAR     77  65  66 W3        29.86R
MIRAMAR MCAS   PTCLDY    83  55  38 W5        29.85R
MONTGOMERY FLD CLEAR     80  65  59 SW5       29.85R

$$

NORTH SAN DIEGO COUNTY

CITY           SKY/WX    TMP DP  RH WIND       PRES   REMARKS
CAMP PENDLETON CLEAR     77  66  68 SW6       29.83R
OCEANSIDE AP   CLEAR     78  66  66 SW6       29.83R
OCEANSIDE HBR    N/A     77  72  85 SW6       29.86R
VISTA            N/A     81  62  52 CALM      29.82R
CARLSBAD       CLEAR     78  66  66 W3        29.84R
DEL MAR          N/A     76  72  87 CALM      29.86S
FALLBROOK        N/A     80  53  39 CALM      29.82R
ESCONDIDO        N/A     86  56  35 CALM      29.85R
SAN MARCOS       N/A     83  60  45 CALM      29.81R
POWAY            N/A     85  57  38 CALM      29.83R

$$

EAST SAN DIEGO COUNTY

CITY           SKY/WX    TMP DP  RH WIND       PRES   REMARKS
RAMONA         CLEAR     83  53  35 NW5       29.90R
SANTEE LAKES     N/A     86  62  43 SW5       29.82R
LA MESA          N/A     81  67  62 CALM      29.76R
JAMUL            N/A     83  64  51 CALM      29.83R
DESCANSO N       N/A     80  48  31 CALM      29.72R
CAMPO            N/A     83  49  30 SW6       29.94R

$$

ORANGE COUNTY AND THE LOS ANGELES BASIN

CITY           SKY/WX    TMP DP  RH WIND       PRES   REMARKS
JOHN WAYNE AP  PTCLDY    79  63  57 S6        29.82R
LAGUNA BEACH     N/A    N/A N/A N/A CALM      29.79R
LAKE FOREST FR   N/A     83  50  30 CALM      29.72R
SANTA ANA        N/A     86  61  43 CALM      29.77R
HUNTINGTON BCH   N/A     78  71  80 W8        29.84R
LOS ALAMITOS   PTCLDY    82  61  47 W7        29.82R
FULLERTON      CLEAR     86  58  38 SW5       29.81R
LONG BEACH     CLEAR     82  63  52 NW5       29.82R
L.A. AP        PTCLDY    75  67  76 W7        29.82R
L.A. DOWNTOWN  CLEAR     79  64  60 CALM      29.81S

$$

THE INLAND EMPIRE

CITY           SKY/WX    TMP DP  RH WIND       PRES   REMARKS
CORONA         CLEAR     87  54  32 W9        29.83R
CHINO          PTCLDY    87  53  31 W10       29.85R
ONTARIO        PTCLDY    89  53  29 SW10      29.84R
SAN BERNARDINO CLEAR     90  46  22 MISG      29.87R
RIVERSIDE AP   CLEAR     89  54  30 W8        29.84R
MORENO VALLEY    N/A     88  53  30 SW1       29.86R
MARCH ARB      CLEAR     88  49  25 NW6       29.89R
HORSETHIEF CYN   N/A     90  45  21 W3        29.84R
PERRIS           N/A     90  49  23 CALM      29.87R
MENIFEE          N/A     89  52  28 SE5       29.90R
HEMET EAST       N/A     90  43  19 CALM      29.85R
FRENCH VALLEY  FAIR      86  48  26 S7        29.89R
TEMECULA         N/A     87  48  25 S5        29.81R

$$

SAN BERNARDINO AND RIVERSIDE COUNTY MOUNTAINS

CITY           SKY/WX    TMP DP  RH WIND       PRES   REMARKS
BIG BEAR AP    CLEAR     68  45  42 W3        30.29R
PINE COVE        N/A     69  47  44 N2        29.84R

$$

SOUTHERN DESERT INCLUDING THE COACHELLA VALLEY

CITY           SKY/WX    TMP DP  RH WIND       PRES   REMARKS
PALM SPRINGS   CLEAR    106  50  15 NW8       29.74R HX 103
THOUSAND PALMS   N/A    103  49  16 NW3       29.70R HX  99
PALM DESERT      N/A    102  57  22 CALM        N/A  HX 101
THERMAL        CLEAR     95  62  33 SE7       29.66R HX  96
BLYTHE         CLEAR    105  60  22 S9        29.72R HX 106
IMPERIAL AP    CLEAR    107  60  21 SE9       29.67S HX 108
EL CENTRO NAS  CLEAR    102  62  26 SE5       29.70R HX 104
YUMA AZ        PTCLDY   105  63  25 W6        29.71R HX 108
MEXICALI       CLEAR    104  55  20 SE6       29.71R HX 103

$$

UPPER DESERT

CITY           SKY/WX    TMP DP  RH WIND       PRES   REMARKS
VICTORVILLE AP CLEAR     91  45  19 W12       29.95R
HESPERIA         N/A     87  53  31 W7        29.87R
APPLE VALLEY     N/A     89  50  26 SW1G18    30.00R
PALMDALE       CLEAR     91  43  18 W17G25    29.93S
LANCASTER      CLEAR     90  42  18 W14       29.93R
EDWARDS AFB    PTCLDY    93  41  16 SW18      29.89R
DAGGETT        PTCLDY   101  42  13 SW21      29.83R HX  96
29 PALMS N     PTCLDY    97  49  19 SW17      29.91R
NEEDLES        PTCLDY   104  46  14 NW5       29.75R HX 100

$$

REGIONAL REPORTS

CITY           SKY/WX    TMP DP  RH WIND       PRES   REMARKS
SANTA BARBARA  CLEAR     73  66  78 SE7       29.80R
SANDBERG       CLEAR     82  39  21 N9        30.12R
LAS VEGAS NV   MOCLDY   100  51  19 S3        29.81S HX  97
PHOENIX AZ     MOCLDY   103  52  18 W6        29.76R HX 100
TIJUANA        CLEAR     79  50  36 NW7       29.87S
ENSENADA NW      N/A     74  32  21 W7        29.83R

$$

OFFSHORE ISLANDS

CITY           SKY/WX    TMP DP  RH WIND       PRES   REMARKS
CATALINA ARPT  CLEAR     83  46  27 W10       29.92R
SAN NICOLAS IS CLEAR    N/A N/A N/A W28G36    29.85R

$$

MARINE AND OFFSHORE BUOY REPORTS

STATION/POSITION SKY/WX   TEMP    WIND        PRES    SWELL
                          AIR SEA DIR/SP/G            HT/PER/DIR
                          (F)     (DEG/KT/KT) (MB)    (FT/S/D)
TANNER BANKS               70 70  310/ 16/ 17 1010.6R   3/240/15
S CLEMENTE BASIN           72 72  320/  2/  4 1010.3R   3/200/15
SO. S. ROSA ISLA           65 67  310/ 19/ 21 1009.9R   3/15
W. S. BARBARA CH           65 68  310/ 21/ 27 1010.2R   3/280/15
M. S. BARBARA CH           71 71  270/ 19/ 23 1009.4R
S. MONICA BASIN            72 74  270/  8/  8 1009.3S   3/190/15
S PEDRO CHANNEL               73                N/A     2/250/14
DANA POINT                    76                N/A     2/210/15
OCEANSIDE OFFSHR              76                N/A     2/220/14
TORREY PINES OTR              77                N/A     2/210/15
MISSION BAY BUOY              77                N/A     2/200/14
POINT LOMA SOUTH              74                N/A     3/190/15

$$



USA.gov is the U.S. government's official web portal to all federal, state and local government web resources and services.